Home > Weather > Panama City > Past weeks

Flag for U.S.A. Weather for the Past 2 Weeks in Panama City, Florida, U.S.A.

Now
59 °F

Clear.


Feels Like: 58 °F
Forecast: 38 / 60 °F
Wind: 6 mph from North

Location: Tyndall Air Force Base

Current Time: Feb 13, 2016 at 6:00:41 PM

Latest Report: Feb 13, 2016 at 4:58 PM


Visibility: 10 mi

Pressure: 30.31 "Hg

Humidity: 22%

Dew point: 20 °F

Location of Panama CityLocation

Historic Weather in Panama City — Graph

°F

Panama City Temperature Yesterday

Maximum temperature yesterday: 68 °F (at 12:58 PM)
Minimum temperature yesterday: 59 °F (at 11:58 PM)
Average temperature yesterday: 63 °F

High & Low Weather Summary for the Past Weeks

 TemperatureHumidityPressure
High73 °F (Feb 1, 11:58 AM)100% (Jan 30, 6:03 AM)30.44 "Hg (Jan 30, 6:03 AM)
Low35 °F (Feb 10, 6:58 AM)19% (Feb 13, 2:58 PM)29.85 "Hg (Feb 8, 1:58 PM)
Average54 °F67%30.14 "Hg
* Reported Jan 29 4:58 PM — Feb 13 4:58 PM, Panama City, Weather by CustomWeather, © 2016

Note: Actual official high and low records may vary slightly from our data, if they occured in-between our weather recording intervals... More about our weather records

Advertising

Panama City Weather History for the Previous 24 Hours

 ConditionsComfort  
Time TempWeatherWind HumidityBarometerVisibility
4:58 PM
Sat, Feb 13
59 °FClear.6 mph22%30.31 "Hg10 mi
3:58 PM61 °FSunny.9 mph19%30.30 "Hg10 mi
2:58 PM61 °FSunny.8 mph19%30.30 "Hg10 mi
1:58 PM61 °FSunny.8 mph21%30.32 "Hg10 mi
12:58 PM60 °FSunny.8 mph22%30.34 "Hg10 mi
11:58 AM58 °FSunny.10 mph27%30.37 "Hg10 mi
10:58 AM55 °FSunny.9 mph30%30.39 "Hg10 mi
9:58 AM54 °FSunny.9 mph37%30.39 "Hg10 mi
8:58 AM51 °FSunny.15 mph44%30.38 "Hg10 mi
7:58 AM49 °FSunny.8 mph50%30.37 "Hg10 mi
6:58 AM47 °FSunny.10 mph59%30.34 "Hg10 mi
5:58 AM48 °FSunny.14 mph57%30.31 "Hg10 mi
4:58 AM50 °FClear.10 mph54%30.27 "Hg10 mi
3:58 AM52 °FClear.16 mph55%30.25 "Hg10 mi
2:58 AM54 °FClear.6 mph53%30.23 "Hg10 mi
1:58 AM56 °FClear.12 mph55%30.22 "Hg10 mi
12:58 AM57 °FClear.12 mph75%30.21 "Hg10 mi
11:58 PM
Fri, Feb 12
59 °FClear.8 mph94%30.21 "Hg10 mi
10:58 PM61 °FClear.8 mph93%30.21 "Hg10 mi
9:58 PM62 °FClear.10 mph90%30.21 "Hg10 mi
8:58 PM62 °FPassing clouds.13 mph92%30.20 "Hg10 mi
7:58 PM62 °FClear.12 mph90%30.19 "Hg10 mi
6:58 PM62 °FClear.14 mph89%30.18 "Hg10 mi
Weather by CustomWeather, © 2016

See weather overviewHow to use our weather pages